This demonstration page uses our WeatherBlox Daily Observations layout. Learn more.

40.92945, -100.16068

Hourly Observations for February 25, 2020

Temp ( °F °C ) Dew Point ( °F °C ) Humidity (%) Winds ( mph kmh ) Pressure ( in mb ) Visibility ( mi km ) Precip ( " mm )
12:15 am 00:15 Cloudy with Snow 32 -0.1 31 -0.5 97 97 E 8 13 30.02 1017 1.5 2.41401 0 0
12:35 am 00:35 Cloudy with Snow 32 -0.2 31 -0.5 98 98 E 6 9 30.02 1017 1 1.60934 0.01 0.254
12:55 am 00:55 Cloudy with Snow 31 -0.3 31 -0.5 99 99 E 6 9 30.02 1017 0.5 0.80467 0.02 0.508
1:15 am 01:15 Cloudy with Snow 31 -0.5 31 -0.5 100 100 E 7 11 30.02 1017 0.5 0.80467 0 0
1:35 am 01:35 Cloudy with Light Snow 31 -0.5 31 -0.5 100 100 E 6 9 30.02 1017 1 1.60934 0.01 0.254
1:55 am 01:55 Cloudy with Light Snow 31 -0.5 31 -0.5 100 100 E 5 7 30.02 1017 1.25 2.011675 0.01 0.254
2:15 am 02:15 Cloudy with Light Snow 31 -0.5 31 -0.5 100 100 E 5 7 30.02 1017 2 3.21868 0 0
2:35 am 02:35 Cloudy with Light Snow 31 -0.5 31 -0.6 99 99 E 6 9 30.02 1017 1.5 2.41401 0.01 0.254
2:55 am 02:55 Cloudy with Snow 31 -0.6 31 -0.8 99 99 E 7 11 30.03 1017 0.5 0.80467 0.02 0.508
3:15 am 03:15 Cloudy with Light Snow 31 -0.6 31 -0.7 99 99 E 5 7 30.02 1017 1.25 2.011675 0 0
3:35 am 03:35 Cloudy with Light Snow 31 -0.6 31 -0.8 99 99 ENE 5 7 30.03 1017 1.5 2.41401 0.01 0.254
3:55 am 03:55 Cloudy with Light Snow 31 -0.5 29 -1.8 91 91 ENE 8 13 30.03 1017 10 16.0934 0.02 0.508
4:15 am 04:15 Cloudy with Light Snow 30 -1 27 -2.7 88 88 ENE 14 22 30.04 1017 7 11.26538 0 0
4:35 am 04:35 Cloudy 30 -1.2 27 -3 88 88 NE 16 26 30.05 1018 10 16.0934 0 0
4:55 am 04:55 Cloudy 29 -1.5 26 -3.2 88 88 NE 14 22 30.06 1018 10 16.0934 0 0
5:15 am 05:15 Cloudy 29 -1.6 26 -3.5 87 87 NE 13 20 30.07 1018 10 16.0934 0 0
5:35 am 05:35 Cloudy 28 -2 25 -4 86 86 NE 14 22 30.09 1019 10 16.0934 0 0
5:55 am 05:55 Cloudy 28 -2 25 -4 86 86 NNE 13 20 30.11 1020 10 16.0934 0 0
6:15 am 06:15 Cloudy 28 -2.1 25 -4 87 87 NE 14 22 30.12 1020 10 16.0934 0 0
6:35 am 06:35 Cloudy 28 -2.2 25 -3.9 88 88 NE 14 22 30.14 1021 10 16.0934 0 0
6:55 am 06:55 Cloudy 28 -2.2 25 -3.8 89 89 NNE 16 26 30.15 1021 10 16.0934 0 0
7:15 am 07:15 Cloudy 28 -2 25 -3.7 88 88 NNE 18 30 30.16 1021 10 16.0934 0 0
7:35 am 07:35 Cloudy 28 -2.1 25 -3.7 89 89 NNE 15 24 30.18 1022 10 16.0934 0 0
7:55 am 07:55 Cloudy 28 -2 25 -3.8 88 88 NNE 15 24 30.2 1023 10 16.0934 0 0
8:15 am 08:15 Cloudy 28 -2 25 -3.8 88 88 NNE 15 24 30.21 1023 10 16.0934 0 0
8:35 am 08:35 Cloudy 28 -2 25 -3.9 87 87 NNE 18 30 30.23 1024 10 16.0934 0 0
8:55 am 08:55 Cloudy 29 -1.8 25 -3.7 87 87 NNE 20 31 30.24 1024 10 16.0934 0 0
9:15 am 09:15 Cloudy with Light Snow 28 -2 26 -3.2 92 92 NNE 18 30 30.26 1025 1.25 2.011675 0 0
9:35 am 09:35 Cloudy with Light Snow 28 -2 27 -3 93 93 NNE 18 30 30.27 1025 1 1.60934 0 0
9:55 am 09:55 Cloudy with Light Snow 28 -2 27 -3 93 93 NNE 18 30 30.28 1025 0.75 1.207005 0 0
10:15 am 10:15 Windy with Snow Likely 28 -2 27 -2.9 94 94 NNE 20 31 30.3 1026 0.75 1.207005 0 0
10:35 am 10:35 Cloudy with Light Snow 29 -1.8 27 -2.7 94 94 N 18 30 30.31 1026 0.75 1.207005 0 0
10:55 am 10:55 Windy with Snow Likely 29 -1.7 27 -2.6 94 94 N 21 33 30.31 1027 0.75 1.207005 0.01 0.254
11:15 am 11:15 Windy with Snow Likely 29 -1.5 28 -2.5 93 93 N 21 33 30.32 1027 1 1.60934 0 0
11:35 am 11:35 Windy with Snow Likely 30 -1.3 27 -2.6 91 91 N 20 31 30.33 1027 1 1.60934 0 0
11:55 am 11:55 Windy with Snow Likely 29 -1.5 27 -2.8 91 91 N 21 33 30.34 1028 0.75 1.207005 0 0
12:15 pm 12:15 Windy with Snow Likely 30 -1.3 27 -3 88 88 N 22 35 30.35 1028 1 1.60934 0.01 0.254
12:35 pm 12:35 Cloudy with Haze 30 -1 26 -3.6 83 83 N 20 31 30.35 1028 5 8.0467 0.01 0.254
12:55 pm 12:55 Cloudy with Haze 30 -1 25 -3.7 82 82 N 21 33 30.36 1028 5 8.0467 0.01 0.254
1:15 pm 13:15 Cloudy 31 -0.7 25 -3.9 79 79 N 23 37 30.36 1028 10 16.0934 0.01 0.254
1:35 pm 13:35 Cloudy 31 -0.7 25 -3.9 79 79 N 23 37 30.36 1028 7 11.26538 0.01 0.254
1:55 pm 13:55 Cloudy 31 -0.6 25 -4 78 78 N 24 39 30.36 1028 7 11.26538 0.01 0.254
2:15 pm 14:15 Mostly Cloudy 31 -0.5 25 -3.9 78 78 N 23 37 30.37 1029 10 16.0934 0 0
2:35 pm 14:35 Mostly Cloudy 31 -0.5 25 -3.9 78 78 N 22 35 30.37 1029 10 16.0934 0 0
2:55 pm 14:55 Mostly Cloudy 31 -0.8 25 -3.9 80 80 N 26 43 30.39 1029 10 16.0934 0 0
3:15 pm 15:15 Cloudy 30 -1 24 -4.2 79 79 N 25 41 30.4 1029 10 16.0934 0 0
3:35 pm 15:35 Cloudy 30 -1 24 -4.4 78 78 N 22 35 30.42 1030 10 16.0934 0 0
3:55 pm 15:55 Cloudy 30 -1 24 -4.5 77 77 N 21 33 30.42 1030 10 16.0934 0 0
4:15 pm 16:15 Cloudy 30 -1.1 24 -4.4 79 79 N 23 37 30.43 1030 10 16.0934 0 0
4:35 pm 16:35 Cloudy 30 -1.1 24 -4.7 77 77 N 20 31 30.44 1031 10 16.0934 0 0
4:55 pm 16:55 Cloudy 30 -1.1 23 -4.8 76 76 N 22 35 30.45 1031 10 16.0934 0 0
5:15 pm 17:15 Cloudy 30 -1.3 23 -5 76 76 N 21 33 30.46 1032 10 16.0934 0 0
5:35 pm 17:35 Cloudy 29 -1.5 21 -5.9 72 72 N 23 37 30.47 1032 10 16.0934 0 0
5:55 pm 17:55 Cloudy 29 -1.9 22 -5.7 76 76 N 18 30 30.49 1032 10 16.0934 0 0
6:15 pm 18:15 Cloudy 28 -2 22 -5.6 77 77 N 20 31 30.49 1032 10 16.0934 0 0
6:35 pm 18:35 Cloudy 28 -2.1 22 -5.6 77 77 N 18 30 30.5 1033 10 16.0934 0 0
6:55 pm 18:55 Cloudy 28 -2.5 22 -5.4 81 81 N 21 33 30.51 1033 10 16.0934 0 0
7:15 pm 19:15 Cloudy 27 -2.6 22 -5.5 81 81 N 21 33 30.53 1034 10 16.0934 0 0
7:35 pm 19:35 Cloudy 27 -2.7 22 -5.5 81 81 N 21 33 30.54 1034 10 16.0934 0 0
7:55 pm 19:55 Cloudy 27 -2.7 21 -5.9 79 79 N 21 33 30.54 1034 10 16.0934 0 0
8:15 pm 20:15 Mostly Cloudy 27 -2.9 21 -6 79 79 N 23 37 30.55 1034 10 16.0934 0 0
8:35 pm 20:35 Cloudy 27 -2.9 21 -6.1 79 79 N 21 33 30.55 1034 10 16.0934 0 0
8:55 pm 20:55 Cloudy 27 -2.8 20 -6.4 77 77 N 23 37 30.56 1035 10 16.0934 0 0
9:15 pm 21:15 Cloudy 27 -3 19 -7 74 74 N 22 35 30.56 1035 10 16.0934 0 0
9:35 pm 21:35 Mostly Cloudy 26 -3.5 19 -7.1 76 76 N 20 31 30.56 1035 10 16.0934 0 0
9:55 pm 21:55 Mostly Cloudy 25 -4 19 -7.2 79 79 N 17 28 30.58 1036 10 16.0934 0 0
10:15 pm 22:15 Mostly Cloudy 24 -4.3 19 -7.4 79 79 N 18 30 30.58 1036 10 16.0934 0 0
10:35 pm 22:35 Mostly Cloudy 24 -4.5 19 -7 83 83 N 16 26 30.58 1036 10 16.0934 0 0
10:55 pm 22:55 Cloudy 25 -4.1 20 -6.7 82 82 N 17 28 30.58 1036 10 16.0934 0 0
11:15 pm 23:15 Cloudy 24 -4.2 20 -6.6 84 84 N 16 26 30.58 1036 10 16.0934 0 0
11:35 pm 23:35 Partly Cloudy 24 -4.3 19 -7.2 80 80 NNW 15 24 30.58 1036 10 16.0934 0 0
11:55 pm 23:55 Clear 23 -4.8 19 -7.5 82 82 NNW 13 20 30.59 1036 10 16.0934 0 0

Powered by AerisWeather